SQ5DCP-1 Weather Reports


Display with metric or nautical units.
time (UTC)temp
F
wind
direction
speed
MPH
gust
MPH
rain 1hr
in
rain 24hr
in
rain mn
in
humidity
%
barometer
mb
20170524174559 52 247 4.0 0.0 0.00 0.00 0.00 84 1007.3
20170524174100 52 270 4.0 0.0 0.00 0.00 0.00 84 1007.4
20170524173559 52 247 4.0 0.0 0.00 0.00 0.00 84 1007.4
20170524173059 52 247 9.0 0.0 0.00 0.00 0.00 84 1007.4
20170524172559 52 270 4.0 0.0 0.00 0.00 0.00 84 1007.4
20170524172059 53 247 8.0 0.0 0.00 0.00 0.00 84 1007.3
20170524171559 53 315 9.0 0.0 0.00 0.00 0.00 84 1007.3
20170524171059 53 270 6.0 0.0 0.00 0.00 0.00 84 1007.3
20170524170559 53 247 6.0 0.0 0.00 0.00 0.00 84 1007.3
20170524170100 53 292 5.0 0.0 0.00 0.00 0.00 84 1007.0
20170524165559 53 247 6.0 0.0 0.00 0.00 0.00 85 1007.0
20170524165059 53 247 4.0 0.0 0.00 0.00 0.00 85 1007.1
20170524164559 53 247 6.0 0.0 0.00 0.00 0.00 85 1007.1
20170524164059 53 315 7.0 0.0 0.00 0.00 0.00 85 1007.1
20170524163559 53 247 4.0 0.0 0.00 0.00 0.00 85 1007.1
20170524163100 53 247 8.0 0.0 0.00 0.00 0.00 84 1007.2
20170524162559 53 247 5.0 0.0 0.00 0.00 0.00 84 1007.2
20170524162100 53 315 9.0 0.0 0.00 0.00 0.00 84 1007.1
20170524161600 53 270 4.0 0.0 0.00 0.00 0.00 84 1007.1
20170524161100 53 270 7.0 0.0 0.00 0.00 0.00 84 1007.1
20170524160600 53 270 4.0 0.0 0.00 0.00 0.00 84 1007.0
20170524160100 53 315 9.0 0.0 0.00 0.00 0.00 84 1007.0
20170524155600 54 270 9.0 0.0 0.00 0.00 0.00 84 1006.9
20170524155100 54 270 10.0 0.0 0.00 0.00 0.00 84 1007.0
20170524154600 54 292 6.0 0.0 0.00 0.00 0.00 84 1006.7
20170524154100 54 315 8.0 0.0 0.00 0.00 0.00 84 1006.7
20170524153600 54 157 12.0 0.0 0.00 0.00 0.00 84 1006.6
20170524153100 54 225 15.0 0.0 0.00 0.00 0.00 84 1006.5
20170524152600 55 225 15.0 0.0 0.00 0.00 0.00 83 1006.5
20170524152100 55 247 11.0 0.0 0.00 0.00 0.00 83 1006.5
20170524151600 56 292 13.0 0.0 0.00 0.00 0.00 83 1006.5
20170524151100 56 247 12.0 0.0 0.00 0.00 0.00 83 1006.3
20170524150600 56 247 6.0 0.0 0.00 0.00 0.00 83 1006.3
20170524150100 56 315 11.0 0.0 0.00 0.00 0.00 83 1006.3
20170524145600 57 247 9.0 0.0 0.00 0.00 0.00 83 1006.2
20170524145100 57 225 7.0 0.0 0.00 0.00 0.00 83 1006.2
20170524144600 57 247 12.0 0.0 0.00 0.00 0.00 82 1006.1
20170524144100 58 247 11.0 0.0 0.00 0.00 0.00 81 1006.2
20170524143600 58 225 10.0 0.0 0.00 0.00 0.00 81 1006.1
20170524143100 59 247 10.0 0.0 0.00 0.00 0.00 81 1006.0
20170524142600 59 292 8.0 0.0 0.00 0.00 0.00 81 1006.0
20170524142100 59 270 8.0 0.0 0.00 0.00 0.00 81 1006.0
20170524141600 59 270 6.0 0.0 0.00 0.00 0.00 82 1006.0
20170524141100 59 270 8.0 0.0 0.00 0.00 0.00 83 1005.9
20170524140600 58 270 7.0 0.0 0.00 0.00 0.00 83 1005.9
20170524140100 58 247 7.0 0.0 0.00 0.00 0.00 83 1005.9
20170524135600 58 270 6.0 0.0 0.00 0.00 0.00 83 1005.9
20170524135101 58 270 5.0 0.0 0.00 0.00 0.00 84 1005.9
20170524134600 58 292 5.0 0.0 0.00 0.00 0.00 83 1006.0
20170524134100 57 270 6.0 0.0 0.00 0.00 0.00 83 1006.1
20170524133600 57 315 6.0 0.0 0.00 0.00 0.00 83 1006.0
20170524133100 57 270 2.0 0.0 0.00 0.00 0.00 83 1006.0
20170524132600 57 292 4.0 0.0 0.00 0.00 0.00 83 1006.1
20170524132100 57 292 8.0 0.0 0.00 0.00 0.00 83 1006.1
20170524131600 57 270 7.0 0.0 0.00 0.00 0.00 83 1006.0
20170524131100 57 292 6.0 0.0 0.00 0.00 0.00 82 1006.1
20170524130600 57 247 8.0 0.0 0.00 0.00 0.00 82 1006.1
20170524130100 57 270 6.0 0.0 0.00 0.00 0.00 82 1006.1
20170524125600 57 247 4.0 0.0 0.00 0.00 0.00 82 1006.2
20170524125101 57 247 5.0 0.0 0.00 0.00 0.00 81 1006.2
20170524124600 57 270 4.0 0.0 0.00 0.00 0.00 81 1006.3
20170524124100 58 270 7.0 0.0 0.00 0.00 0.00 81 1006.3
20170524123601 58 270 10.0 0.0 0.00 0.00 0.00 79 1006.3
20170524123100 59 270 7.0 0.0 0.00 0.00 0.00 77 1006.2
20170524122600 59 225 7.0 0.0 0.00 0.00 0.00 74 1006.1
20170524122100 60 247 9.0 0.0 0.00 0.00 0.00 72 1005.8
20170524121601 62 270 9.0 0.0 0.00 0.00 0.00 71 1005.7
20170524121101 63 157 7.0 0.0 0.00 0.00 0.00 75 1005.7
20170524120601 63 270 5.0 0.0 0.00 0.00 0.00 74 1005.6
20170524120100 63 247 4.0 0.0 0.00 0.00 0.00 74 1005.7
20170524115600 63 225 6.0 0.0 0.00 0.00 0.00 74 1005.7
20170524115100 63 225 4.0 0.0 0.00 0.00 0.00 74 1005.7
20170524114600 63 270 6.0 0.0 0.00 0.00 0.00 74 1005.8
20170524114100 63 270 5.0 0.0 0.00 0.00 0.00 76 1005.7
20170524113600 63 315 3.0 0.0 0.00 0.00 0.00 76 1005.8
20170524113101 62 270 5.0 0.0 0.00 0.00 0.00 75 1005.8
20170524112601 62 270 8.0 0.0 0.00 0.00 0.00 76 1005.8
20170524112101 62 247 6.0 0.0 0.00 0.00 0.00 76 1005.9
20170524111600 62 225 7.0 0.0 0.00 0.00 0.00 76 1005.8
20170524111101 62 247 6.0 0.0 0.00 0.00 0.00 78 1005.8
20170524110601 61 270 5.0 0.0 0.00 0.00 0.00 79 1005.7
20170524110100 61 225 5.0 0.0 0.00 0.00 0.00 79 1005.7
20170524105600 61 270 4.0 0.0 0.00 0.00 0.00 80 1005.7
20170524105100 61 292 4.0 0.0 0.00 0.00 0.00 80 1005.7
20170524104600 61 270 4.0 0.0 0.00 0.00 0.00 81 1005.7
20170524104100 61 270 5.0 0.0 0.00 0.00 0.00 82 1005.7
20170524103600 61 225 6.0 0.0 0.00 0.00 0.00 83 1005.8
20170524103100 61 225 6.0 0.0 0.00 0.00 0.00 84 1005.8
20170524102600 60 270 2.0 0.0 0.00 0.00 0.00 84 1005.9
20170524102100 60 247 4.0 0.0 0.00 0.00 0.00 85 1005.9
20170524101600 60 247 3.0 0.0 0.00 0.00 0.00 85 1005.9
20170524101100 59 270 4.0 0.0 0.00 0.00 0.00 86 1006.0
20170524100600 59 225 4.0 0.0 0.00 0.00 0.00 85 1006.0
20170524100101 59 270 2.0 0.0 0.00 0.00 0.00 85 1006.0
20170524095600 59 247 5.0 0.0 0.00 0.00 0.00 86 1006.0
20170524095100 58 247 2.0 0.0 0.00 0.00 0.00 86 1006.0
20170524094600 58 315 0.0 0.0 0.00 0.00 0.00 86 1006.1
20170524094100 58 247 3.0 0.0 0.00 0.00 0.00 85 1006.2
20170524093600 58 292 3.0 0.0 0.00 0.00 0.00 85 1006.2
20170524093101 57 270 3.0 0.0 0.00 0.00 0.00 85 1006.3
20170524092600 57 292 1.0 0.0 0.00 0.00 0.00 85 1006.4
20170524092100 57 270 3.0 0.0 0.00 0.00 0.00 84 1006.4
20170524091601 57 270 5.0 0.0 0.00 0.00 0.00 84 1006.5
20170524091101 57 270 1.0 0.0 0.00 0.00 0.00 84 1006.6
20170524090601 57 292 1.0 0.0 0.00 0.00 0.00 84 1006.7
20170524090101 57 292 4.0 0.0 0.00 0.00 0.00 84 1006.7
20170524085600 57 292 3.0 0.0 0.00 0.00 0.00 83 1006.9
20170524085101 57 270 4.0 0.0 0.00 0.00 0.00 83 1006.9
20170524084601 58 225 2.0 0.0 0.00 0.00 0.00 83 1006.9
20170524084101 58 292 6.0 0.0 0.00 0.00 0.00 81 1006.9
20170524083601 58 270 4.0 0.0 0.00 0.00 0.00 80 1007.0
20170524083101 59 270 2.0 0.0 0.00 0.00 0.00 79 1007.0
20170524082601 59 247 4.0 0.0 0.00 0.00 0.00 78 1007.0
20170524082100 60 337 6.0 0.0 0.00 0.00 0.00 76 1006.7
20170524081600 60 270 5.0 0.0 0.00 0.00 0.00 74 1006.6
20170524081101 61 270 10.0 0.0 0.00 0.00 0.00 72 1006.6
20170524080601 61 270 10.0 0.0 0.00 0.00 0.00 71 1006.5
20170524080100 61 247 3.0 0.0 0.00 0.00 0.00 71 1006.3
20170524075601 61 270 7.0 0.0 0.00 0.00 0.00 72 1006.4
20170524075101 62 247 8.0 0.0 0.00 0.00 0.00 72 1006.4
20170524074601 62 292 5.0 0.0 0.00 0.00 0.00 72 1006.4
20170524074101 62 270 8.0 0.0 0.00 0.00 0.00 73 1006.3
20170524073601 62 270 10.0 0.0 0.00 0.00 0.00 73 1006.3
20170524073101 62 292 6.0 0.0 0.00 0.00 0.00 74 1006.3
20170524072601 62 225 4.0 0.0 0.00 0.00 0.00 74 1006.3
20170524072101 62 247 4.0 0.0 0.00 0.00 0.00 74 1006.4
20170524071601 62 247 4.0 0.0 0.00 0.00 0.00 73 1006.4
20170524071101 62 247 7.0 0.0 0.00 0.00 0.00 73 1006.5
20170524070601 62 247 6.0 0.0 0.00 0.00 0.00 74 1006.5
20170524070101 62 247 5.0 0.0 0.00 0.00 0.00 73 1006.4
20170524065601 62 247 6.0 0.0 0.00 0.00 0.00 74 1006.5
20170524065101 62 247 6.0 0.0 0.00 0.00 0.00 74 1006.5
20170524064601 62 292 3.0 0.0 0.00 0.00 0.00 74 1006.3
20170524064101 62 270 5.0 0.0 0.00 0.00 0.00 74 1006.3
20170524063601 62 247 4.0 0.0 0.00 0.00 0.00 75 1006.2
20170524063101 62 270 5.0 0.0 0.00 0.00 0.00 75 1006.2
20170524062601 62 247 5.0 0.0 0.00 0.00 0.00 75 1006.3
20170524062101 62 225 5.0 0.0 0.00 0.00 0.00 76 1006.3
20170524061601 62 225 3.0 0.0 0.00 0.00 0.00 76 1006.2
20170524061101 61 270 5.0 0.0 0.00 0.00 0.00 76 1006.3
20170524060601 61 247 3.0 0.0 0.00 0.00 0.00 78 1006.2
20170524060101 61 225 2.0 0.0 0.00 0.00 0.00 77 1006.2
20170524055601 61 247 1.0 0.0 0.00 0.00 0.00 78 1006.2
20170524055101 61 270 4.0 0.0 0.00 0.00 0.00 78 1006.2
20170524054601 61 247 1.0 0.0 0.00 0.00 0.00 79 1006.3
20170524054101 60 270 4.0 0.0 0.00 0.00 0.00 79 1006.3
20170524053601 60 225 1.0 0.0 0.00 0.00 0.00 80 1006.3
20170524053101 60 247 2.0 0.0 0.00 0.00 0.00 81 1006.2
20170524052601 59 225 4.0 0.0 0.00 0.00 0.00 82 1006.2
20170524052101 59 225 1.0 0.0 0.00 0.00 0.00 83 1006.2
20170524051601 59 180 2.0 0.0 0.00 0.00 0.00 83 1006.2
20170524051101 58 202 0.0 0.0 0.00 0.00 0.00 83 1006.1
20170524050602 58 135 1.0 0.0 0.00 0.00 0.00 83 1006.1
20170524050101 58 135 0.0 0.0 0.00 0.00 0.00 83 1006.1
20170524045602 58 157 0.0 0.0 0.00 0.00 0.00 83 1006.1
20170524045101 57 135 0.0 0.0 0.00 0.00 0.00 84 1006.1
20170524044601 57 135 0.0 0.0 0.00 0.00 0.00 84 1006.1
20170524044101 57 157 0.0 0.0 0.00 0.00 0.00 84 1006.2
20170524043601 56 157 0.0 0.0 0.00 0.00 0.00 84 1006.2
20170524043101 56 157 1.0 0.0 0.00 0.00 0.00 84 1006.3
20170524042601 56 157 0.0 0.0 0.00 0.00 0.00 84 1006.2
20170524042101 56 135 0.0 0.0 0.00 0.00 0.00 83 1006.3
20170524041602 56 157 0.0 0.0 0.00 0.00 0.00 83 1006.4
20170524041101 56 157 0.0 0.0 0.00 0.00 0.00 83 1006.4
20170524040601 56 157 0.0 0.0 0.00 0.00 0.00 83 1006.5
20170524040101 55 135 0.0 0.0 0.00 0.00 0.00 83 1006.4
20170524035601 55 135 0.0 0.0 0.00 0.00 0.00 83 1006.5
20170524035101 55 247 0.0 0.0 0.00 0.00 0.00 83 1006.6
20170524034601 55 157 0.0 0.0 0.00 0.00 0.00 83 1006.6
20170524034101 55 157 0.0 0.0 0.00 0.00 0.00 83 1006.5
20170524033601 55 180 0.0 0.0 0.00 0.00 0.00 82 1006.5
20170524033101 55 180 0.0 0.0 0.00 0.00 0.00 82 1006.5
20170524032601 55 157 1.0 0.0 0.00 0.00 0.00 82 1006.6
20170524032101 55 157 2.0 0.0 0.00 0.00 0.00 82 1006.6
20170524031601 55 135 1.0 0.0 0.00 0.00 0.00 82 1006.6
20170524031101 55 135 0.0 0.0 0.00 0.00 0.00 82 1006.6
20170524030601 55 135 0.0 0.0 0.00 0.00 0.00 82 1006.6
20170524030101 55 135 0.0 0.0 0.00 0.00 0.00 82 1006.6
20170524025601 55 135 0.0 0.0 0.00 0.00 0.00 82 1006.6
20170524025101 55 135 0.0 0.0 0.00 0.00 0.00 82 1006.7
20170524024602 55 135 0.0 0.0 0.00 0.00 0.00 82 1006.6
20170524024059 55 157 0.0 0.0 0.00 0.00 0.00 82 1006.6
20170524023558 55 180 0.0 0.0 0.00 0.00 0.00 82 1006.7
20170524023058 55 180 0.0 0.0 0.00 0.00 0.00 82 1006.7
20170524022558 55 157 2.0 0.0 0.00 0.00 0.00 82 1006.7
20170524022058 55 135 1.0 0.0 0.00 0.00 0.00 81 1006.8
20170524021559 56 135 0.0 0.0 0.00 0.00 0.00 81 1006.8
20170524021059 56 135 0.0 0.0 0.00 0.00 0.00 81 1006.8
20170524020559 56 157 0.0 0.0 0.00 0.00 0.00 81 1006.8
20170524020059 56 157 0.0 0.0 0.00 0.00 0.00 81 1006.9
20170524015559 56 157 0.0 0.0 0.00 0.00 0.00 81 1007.0
20170524015059 56 157 0.0 0.0 0.00 0.00 0.00 81 1007.0
20170524014559 56 157 0.0 0.0 0.00 0.00 0.00 81 1007.0
20170524014059 56 135 0.0 0.0 0.00 0.00 0.00 81 1007.0
20170524013559 56 135 0.0 0.0 0.00 0.00 0.00 81 1007.1
20170524013059 56 157 1.0 0.0 0.00 0.00 0.00 81 1007.2
20170524012558 56 157 1.0 0.0 0.00 0.00 0.00 81 1007.2
20170524012058 56 135 1.0 0.0 0.00 0.00 0.00 81 1007.2
20170524011559 56 135 1.0 0.0 0.00 0.00 0.00 80 1007.2
20170524011059 56 135 1.0 0.0 0.00 0.00 0.00 80 1007.1
20170524010558 56 135 0.0 0.0 0.00 0.00 0.00 80 1007.1
20170524010058 56 135 0.0 0.0 0.00 0.00 0.00 80 1007.2
20170524005559 57 135 0.0 0.0 0.00 0.00 0.00 79 1007.2
20170524005058 57 135 0.0 0.0 0.00 0.00 0.00 79 1007.3
20170524004558 57 112 1.0 0.0 0.00 0.00 0.00 79 1007.4
20170524004059 57 135 0.0 0.0 0.00 0.00 0.00 79 1007.3
20170524003559 57 247 0.0 0.0 0.00 0.00 0.00 79 1007.3
20170524003059 57 247 0.0 0.0 0.00 0.00 0.00 79 1007.3
20170524002558 57 247 0.0 0.0 0.00 0.00 0.00 78 1007.4
20170524002059 58 247 0.0 0.0 0.00 0.00 0.00 78 1007.5
20170524001559 58 247 0.0 0.0 0.00 0.00 0.00 78 1007.5
20170524001059 58 247 0.0 0.0 0.00 0.00 0.00 78 1007.5
20170524000559 58 247 1.0 0.0 0.00 0.00 0.00 77 1007.6
20170524000059 58 247 1.0 0.0 0.00 0.00 0.00 77 1007.6
20170523235559 58 225 1.0 0.0 0.00 0.00 0.00 76 1007.6
20170523235059 58 247 0.0 0.0 0.00 0.00 0.00 76 1007.7
20170523234559 58 247 0.0 0.0 0.00 0.00 0.00 76 1007.7
20170523234059 58 247 0.0 0.0 0.00 0.00 0.00 76 1007.8
20170523233559 58 247 0.0 0.0 0.00 0.00 0.00 76 1007.8
20170523233059 59 247 0.0 0.0 0.00 0.00 0.00 76 1007.8
20170523232559 59 247 0.0 0.0 0.00 0.00 0.00 76 1008.0
20170523232059 59 247 0.0 0.0 0.00 0.00 0.00 76 1008.0
20170523231559 59 247 1.0 0.0 0.00 0.00 0.00 76 1008.1
20170523231059 59 247 1.0 0.0 0.00 0.00 0.00 75 1008.1
20170523230559 59 225 0.0 0.0 0.00 0.00 0.00 75 1008.1
20170523230059 59 247 1.0 0.0 0.00 0.00 0.00 75 1008.2
20170523225559 59 225 1.0 0.0 0.00 0.00 0.00 74 1008.2
20170523225059 59 225 0.0 0.0 0.00 0.00 0.00 74 1008.2
20170523224559 59 225 0.0 0.0 0.00 0.00 0.00 74 1008.3
20170523224059 59 225 0.0 0.0 0.00 0.00 0.00 74 1008.4
20170523223559 59 225 0.0 0.0 0.00 0.00 0.00 74 1008.3
20170523223059 60 247 1.0 0.0 0.00 0.00 0.00 73 1008.4
20170523222559 60 247 1.0 0.0 0.00 0.00 0.00 73 1008.4
20170523222059 60 225 1.0 0.0 0.00 0.00 0.00 73 1008.4
20170523221559 60 202 0.0 0.0 0.00 0.00 0.00 73 1008.4
20170523221059 60 225 0.0 0.0 0.00 0.00 0.00 73 1008.5
20170523220559 60 247 1.0 0.0 0.00 0.00 0.00 73 1008.5
20170523220059 60 225 2.0 0.0 0.00 0.00 0.00 73 1008.6
20170523215559 60 247 2.0 0.0 0.00 0.00 0.00 72 1008.6
20170523215059 60 247 1.0 0.0 0.00 0.00 0.00 72 1008.6
20170523214559 60 135 1.0 0.0 0.00 0.00 0.00 72 1008.7
20170523214059 61 157 2.0 0.0 0.00 0.00 0.00 73 1008.8
20170523213559 61 225 2.0 0.0 0.00 0.00 0.00 72 1008.9
20170523213100 61 247 0.0 0.0 0.00 0.00 0.00 72 1008.9
20170523212559 61 247 3.0 0.0 0.00 0.00 0.00 71 1008.9
20170523212059 61 225 1.0 0.0 0.00 0.00 0.00 71 1008.9
20170523211559 61 225 2.0 0.0 0.00 0.00 0.00 71 1009.0
20170523211059 61 247 5.0 0.0 0.00 0.00 0.00 71 1009.0
20170523210559 61 225 4.0 0.0 0.00 0.00 0.00 70 1009.0
20170523210059 61 225 4.0 0.0 0.00 0.00 0.00 70 1008.9
20170523205559 61 225 5.0 0.0 0.00 0.00 0.00 69 1008.9
20170523205059 61 225 5.0 0.0 0.00 0.00 0.00 69 1009.0
20170523204600 61 247 1.0 0.0 0.00 0.00 0.00 70 1009.1
20170523204100 62 247 2.0 0.0 0.00 0.00 0.00 69 1009.1
20170523203559 62 225 6.0 0.0 0.00 0.00 0.00 69 1009.1
20170523203100 62 247 4.0 0.0 0.00 0.00 0.00 68 1009.0
20170523202600 63 202 7.0 0.0 0.00 0.00 0.00 68 1008.9
20170523202100 63 90 3.0 0.0 0.00 0.00 0.00 67 1008.9
20170523201559 63 247 7.0 0.0 0.00 0.00 0.00 66 1008.8
20170523201059 64 157 3.0 0.0 0.00 0.00 0.00 65 1008.8
20170523200559 64 202 5.0 0.0 0.00 0.00 0.00 65 1008.9
20170523200100 64 225 2.0 0.0 0.00 0.00 0.00 64 1008.9
20170523195559 0 0 0.0 0.0 0.00 0.00 0.00 100
20170523195100 65 225 3.0 0.0 0.00 0.00 0.00 62 1008.9
20170523194559 65 202 8.0 0.0 0.00 0.00 0.00 61 1008.9
20170523194100 66 202 7.0 0.0 0.00 0.00 0.00 60 1008.9
20170523193600 67 225 7.0 0.0 0.00 0.00 0.00 59 1008.9
20170523193100 67 270 2.0 0.0 0.00 0.00 0.00 55 1008.8
20170523192600 68 202 4.0 0.0 0.00 0.00 0.00 53 1008.7
20170523192059 68 157 5.0 0.0 0.00 0.00 0.00 51 1008.7
20170523191559 68 22 0.0 0.0 0.00 0.00 0.00 49 1008.6
20170523191100 68 337 1.0 0.0 0.00 0.00 0.00 49 1008.5
20170523190559 69 315 2.0 0.0 0.00 0.00 0.00 49 1008.4
20170523190059 69 337 2.0 0.0 0.00 0.00 0.00 49 1008.4
20170523185559 69 315 1.0 0.0 0.00 0.00 0.00 49 1008.3
20170523185059 69 337 0.0 0.0 0.00 0.00 0.00 49 1008.3
20170523184600 69 315 0.0 0.0 0.00 0.00 0.00 49 1008.2
20170523184100 69 315 2.0 0.0 0.00 0.00 0.00 49 1008.1
20170523183600 69 337 1.0 0.0 0.00 0.00 0.00 49 1008.1
20170523183100 69 292 2.0 0.0 0.00 0.00 0.00 49 1008.1
20170523182600 70 337 1.0 0.0 0.00 0.00 0.00 48 1008.1
20170523182100 70 337 2.0 0.0 0.00 0.00 0.00 48 1008.0
20170523181600 70 337 0.0 0.0 0.00 0.00 0.00 48 1008.0
20170523181100 70 315 0.0 0.0 0.00 0.00 0.00 48 1008.0
20170523180600 70 315 1.0 0.0 0.00 0.00 0.00 48 1008.0
20170523180100 70 315 3.0 0.0 0.00 0.00 0.00 48 1008.1
20170523175600 70 337 0.0 0.0 0.00 0.00 0.00 47 1008.0
20170523175100 71 337 2.0 0.0 0.00 0.00 0.00 47 1008.0